TimeCST,TemperatureF,Dew PointF,Humidity,Sea Level PressureIn,VisibilityMPH,Wind Direction,Wind SpeedMPH,Gust SpeedMPH,PrecipitationIn,Events,Conditions,WindDirDegrees,DateUTC
12:09 AM,35.6,28.4,75,29.90,10.0,WNW,18.4,25.3,N/A,,Mostly Cloudy,290,2012-12-10 06:09:00
12:51 AM,32.0,24.1,73,29.93,10.0,West,24.2,27.6,N/A,,Mostly Cloudy,280,2012-12-10 06:51:00
1:51 AM,30.9,23.0,72,29.94,10.0,West,17.3,24.2,N/A,,Overcast,280,2012-12-10 07:51:00
2:51 AM,30.9,23.0,72,29.92,10.0,WNW,15.0,19.6,N/A,,Overcast,290,2012-12-10 08:51:00
3:51 AM,28.9,21.0,72,29.92,10.0,WNW,11.5,-,N/A,,Overcast,300,2012-12-10 09:51:00
4:51 AM,28.9,21.0,72,29.91,10.0,WNW,15.0,20.7,N/A,,Overcast,290,2012-12-10 10:51:00
5:51 AM,28.0,19.9,72,29.92,10.0,WNW,16.1,23.0,N/A,,Overcast,300,2012-12-10 11:51:00
6:51 AM,27.0,19.0,72,29.97,10.0,WNW,13.8,19.6,N/A,,Overcast,290,2012-12-10 12:51:00
7:51 AM,27.0,18.0,69,29.99,10.0,WNW,13.8,20.7,N/A,,Overcast,300,2012-12-10 13:51:00
8:51 AM,27.0,18.0,69,30.00,10.0,West,15.0,-,N/A,,Overcast,280,2012-12-10 14:51:00
9:51 AM,27.0,19.0,72,30.01,10.0,WNW,16.1,-,N/A,,Overcast,290,2012-12-10 15:51:00
10:51 AM,28.0,19.0,69,30.00,10.0,West,16.1,-,N/A,,Overcast,280,2012-12-10 16:51:00
11:51 AM,28.0,19.0,69,29.99,10.0,WNW,12.7,-,N/A,,Overcast,300,2012-12-10 17:51:00
12:51 PM,28.9,19.0,67,29.98,10.0,WNW,10.4,-,N/A,,Overcast,300,2012-12-10 18:51:00
1:15 PM,30.2,19.4,64,29.94,10.0,West,15.0,18.4,N/A,,Overcast,280,2012-12-10 19:15:00
1:51 PM,30.0,19.9,66,29.97,10.0,WNW,9.2,-,N/A,,Overcast,300,2012-12-10 19:51:00
2:51 PM,30.9,19.9,64,29.99,10.0,WNW,13.8,18.4,N/A,,Overcast,300,2012-12-10 20:51:00
3:10 PM,30.2,19.4,64,29.97,10.0,WNW,15.0,-,N/A,,Overcast,290,2012-12-10 21:10:00
3:51 PM,30.9,19.9,64,30.01,10.0,WNW,9.2,-,N/A,,Overcast,300,2012-12-10 21:51:00
4:51 PM,30.9,19.0,61,30.03,10.0,NW,11.5,18.4,N/A,,Overcast,310,2012-12-10 22:51:00
5:51 PM,30.9,19.9,64,30.05,10.0,WNW,9.2,-,N/A,,Overcast,300,2012-12-10 23:51:00
6:51 PM,32.0,19.9,61,30.07,10.0,WNW,8.1,-,N/A,,Mostly Cloudy,300,2012-12-11 00:51:00
7:15 PM,32.0,19.4,60,30.04,10.0,WNW,9.2,-,N/A,,Mostly Cloudy,300,2012-12-11 01:15:00
7:51 PM,30.9,19.9,64,30.07,10.0,WNW,8.1,-,N/A,,Mostly Cloudy,290,2012-12-11 01:51:00
8:51 PM,30.9,19.0,61,30.08,10.0,WNW,5.8,-,N/A,,Mostly Cloudy,290,2012-12-11 02:51:00
9:51 PM,30.0,19.0,64,30.09,10.0,West,6.9,-,N/A,,Mostly Cloudy,260,2012-12-11 03:51:00
10:51 PM,28.9,19.0,67,30.10,10.0,West,5.8,-,N/A,,Scattered Clouds,260,2012-12-11 04:51:00
11:51 PM,27.0,19.0,72,30.11,10.0,West,6.9,-,N/A,,Clear,270,2012-12-11 05:51:00